GFSWCAN_con_sbcape_021.txt.gz
CAPE
46 47 54 47 64 87 96 104 120 145 138 142 111 109 101 109 69 52 73 5 53 37 1 0 0 1 5 3 1 0 0 1 11 196 280 127 137 233 364 369 342 520 539 455 301 75 22 0 45 182 82 31 0 3
67 59 58 55 50 33 61 76 123 107 123 93 90 90 44 38 118 63 70 0 7 34 0 0 0 0 1 0 0 0 0 0 5 11 10 22 274 215 623 546 369 392 483 362 146 79 6 0 24 8 4 53 83 423
108 67 60 57 53 41 84 102 100 92 98 36 32 49 55 89 19 54 54 0 1 7 1 0 0 0 0 0 0 2 1 0 17 7 27 10 151 183 688 683 469 363 219 305 303 65 0 0 0 0 0 0 0 0
129 80 54 75 88 81 72 69 93 61 48 33 36 28 24 13 36 45 55 22 15 13 8 0 0 0 0 0 0 0 0 0 0 0 15 12 26 0 343 201 581 24 308 104 54 0 1 0 0 0 0 0 0 0
153 119 102 86 51 41 46 67 72 43 33 16 31 42 36 51 53 74 39 0 3 3 5 0 0 0 0 0 0 0 0 0 0 0 11 1 0 59 9 29 10 14 6 96 70 15 2 0 0 0 0 0 0 0
127 89 58 58 65 44 51 43 36 29 41 27 35 29 40 69 9 2 0 3 1 13 9 24 0 0 0 0 0 0 0 0 0 2 5 0 0 17 26 15 6 7 6 2 12 0 0 0 0 0 0 0 0 0
56 53 54 62 55 64 57 36 30 33 24 27 51 42 39 52 11 0 0 5 2 21 21 24 2 0 0 0 0 0 0 0 0 0 3 1 0 0 9 17 11 7 1 0 0 0 0 0 0 0 0 0 0 0
45 39 33 30 38 53 29 24 21 16 13 17 11 14 38 33 17 6 4 1 4 3 1 26 5 13 0 0 4 0 0 0 0 0 17 2 0 2 12 13 6 0 0 0 0 0 0 0 0 0 0 0 0 0
11 17 22 28 51 41 37 43 26 6 0 0 0 0 0 0 0 0 1 2 2 0 4 21 4 72 0 0 0 0 0 6 0 98 32 14 6 15 29 3 6 0 0 0 0 0 0 0 0 0 0 0 0 0
21 14 12 65 44 61 68 29 11 0 0 0 0 0 15 0 0 0 3 1 0 0 11 14 0 0 0 1 0 0 0 4 178 64 32 48 19 5 16 3 1 0 0 0 0 0 1 0 0 0 0 0 0 0
70 77 66 57 62 56 35 24 8 0 0 0 4 9 0 0 0 0 0 1 4 4 3 0 0 0 0 3 7 0 0 0 38 38 77 58 9 6 8 5 4 1 0 0 0 0 0 0 0 0 0 0 0 0
64 73 76 74 46 31 28 19 8 0 0 7 10 9 4 0 0 0 0 0 2 25 0 0 0 0 0 0 3 0 0 13 87 66 66 28 41 16 4 4 0 1 0 0 0 0 0 0 0 0 0 0 0 0
36 25 29 34 29 13 4 4 1 1 0 4 1 0 0 0 1 1 77 58 51 0 0 0 0 0 0 0 0 7 10 53 64 51 12 33 33 20 3 0 0 0 0 0 0 0 0 0 0 0 0 0 0 0
0 0 0 17 6 1 0 0 0 0 0 1 4 0 10 8 26 42 29 35 21 1 2 0 0 0 0 0 0 6 48 108 63 19 13 17 23 0 0 0 0 0 0 0 0 0 0 0 0 0 0 0 0 0
0 0 0 0 0 0 0 0 0 0 1 4 5 2 5 3 4 22 23 19 10 12 0 3 0 0 0 14 81 65 49 10 25 23 23 14 0 0 0 0 0 0 0 0 0 0 0 0 0 0 0 0 0 0
0 0 0 0 0 1 0 0 0 0 0 1 0 6 10 3 30 21 3 0 0 0 0 1 16 9 0 43 39 27 8 16 30 37 15 1 0 0 0 0 0 0 0 0 0 0 0 0 0 0 0 0 12 13
0 0 0 0 0 0 0 0 0 0 0 5 13 2 8 5 0 0 0 0 0 0 20 22 28 1 4 31 46 57 22 19 19 28 2 0 0 0 0 0 0 0 2 0 2 8 12 7 5 12 20 21 22 26
0 0 0 0 0 0 0 0 0 0 0 0 7 0 0 0 0 0 0 0 0 0 31 21 17 42 45 29 47 27 20 6 23 21 14 3 7 16 6 9 7 11 20 19 17 22 25 36 22 15 11 21 23 43
0 0 0 0 0 0 0 0 0 0 0 0 0 0 0 0 0 0 0 0 0 0 1 16 10 21 35 38 34 23 15 21 34 12 5 7 5 6 7 15 27 51 45 62 64 50 32 25 15 0 0 3 33 39
0 0 0 0 0 0 0 0 0 0 0 0 0 0 0 0 0 0 0 0 0 0 1 15 21 16 11 6 0 4 9 0 5 12 7 10 9 24 68 69 91 85 72 44 24 0 25 24 0 0 0 2 21 38
0 0 0 0 0 0 0 0 0 1 2 0 0 0 0 0 0 0 0 0 0 0 1 0 0 0 0 0 0 0 13 3 51 70 108 127 66 20 7 40 8 0 0 0 0 0 0 0 0 0 0 0 0 0
0 0 0 0 0 0 0 0 1 1 0 0 0 0 0 0 0 0 0 0 0 0 0 0 2 0 0 0 3 6 14 50 193 50 16 7 29 135 2 0 0 0 0 0 0 0 0 0 0 0 0 0 0 0
0 0 0 0 0 0 0 0 0 0 1 1 0 0 0 0 0 0 4 0 0 0 0 0 7 25 10 76 50 30 47 99 146 144 100 91 76 15 0 0 0 0 0 0 0 0 0 0 0 0 0 0 0 0
0 0 0 0 0 0 0 1 1 0 0 0 1 1 0 0 0 23 9 5 28 0 92 55 52 119 79 5 0 0 1 35 4 0 2 8 0 0 0 0 0 0 0 0 0 0 0 0 0 0 0 0 0 0
0 0 0 0 0 0 0 0 0 0 0 0 1 0 0 0 3 40 108 163 127 85 72 80 97 25 0 0 0 0 0 0 0 0 0 0 0 0 0 0 0 0 0 0 0 0 0 0 0 0 0 0 0 7
0 0 0 0 0 0 0 1 0 0 0 0 0 0 1 3 23 54 149 164 110 78 57 9 0 0 0 0 0 0 0 0 0 0 0 0 0 0 0 0 0 0 0 0 0 0 0 0 0 0 0 0 0 13
0 0 0 0 3 1 2 1 2 2 0 0 0 0 3 28 42 100 254 27 34 0 0 0 0 0 0 0 0 0 0 0 0 0 0 0 0 0 0 0 0 0 0 0 0 0 0 0 0 0 0 0 4 25
0 1 1 0 0 0 0 1 1 0 0 0 0 13 7 3 0 0 7 0 0 0 0 0 0 0 0 0 0 0 0 0 0 0 0 0 0 0 0 0 0 0 0 0 0 0 0 0 0 0 1 9 35 57
0 0 0 0 0 1 0 0 0 0 0 0 0 0 0 0 0 0 0 0 0 0 0 0 0 0 0 0 0 0 0 0 0 0 0 0 0 0 0 0 0 0 0 0 0 0 0 0 0 0 0 2 6 8
12 0 0 2 1 0 0 0 0 0 0 0 0 1 7 8 7 0 0 0 0 0 0 0 0 0 0 0 0 0 0 0 0 0 0 0 0 0 0 0 0 0 0 0 1 0 0 0 0 0 0 0 0 0
49 32 12 7 136 9 0 0 0 0 0 0 7 7 23 15 1 1 0 0 0 0 0 0 0 0 0 0 0 0 0 0 0 0 0 0 0 0 0 0 0 0 0 0 0 0 0 0 0 1 1 2 3 2
168 141 163 208 78 92 5 57 148 34 23 41 37 9 19 14 5 8 26 0 0 0 0 0 0 0 0 0 0 0 0 0 0 0 0 0 0 0 0 0 0 0 0 0 0 0 0 0 2 5 6 7 10 13
127 225 212 207 224 168 217 191 145 10 16 18 35 13 5 0 22 52 30 0 0 0 0 0 0 0 0 0 0 0 0 0 0 0 0 0 0 0 0 0 0 0 0 0 0 1 2 4 7 11 16 19 25 27

GFSWCAN_con_sbcape_024.txt.gz
CAPE
112 152 187 135 91 76 70 50 76 85 120 119 122 148 114 118 96 193 129 96 60 40 8 35 17 24 15 0 14 6 0 79 120 280 229 226 293 183 190 221 419 356 378 289 445 483 433 76 369 405 610 772 401 332
157 174 146 107 81 70 76 54 65 105 101 126 74 66 65 51 33 71 50 161 266 63 13 8 2 3 2 1 6 12 2 10 0 49 92 62 336 428 422 387 717 475 383 398 670 658 174 81 278 293 475 557 939 540
131 175 174 155 119 116 117 112 99 79 85 55 25 26 25 29 16 57 161 40 37 32 17 5 1 0 0 0 0 10 9 0 18 7 15 25 148 399 524 467 626 862 811 632 562 136 97 51 0 23 114 150 286 733
49 85 144 112 73 55 53 62 61 44 20 23 20 27 34 26 19 36 99 234 114 57 48 1 0 0 1 2 0 0 0 7 3 1 32 23 94 180 725 710 749 113 574 653 351 98 1 16 0 0 0 3 21 258
15 28 56 60 75 70 62 49 26 17 19 12 16 37 30 23 31 118 112 79 67 66 27 1 0 2 0 0 0 0 0 0 23 9 39 18 21 20 280 194 12 12 13 697 324 77 96 6 0 0 0 0 0 4
49 65 54 63 90 91 57 42 23 32 36 32 18 57 28 35 16 69 39 1 19 61 56 17 2 13 73 15 1 0 3 10 23 29 25 27 2 51 333 15 7 12 12 6 365 95 3 0 0 0 0 0 0 0
36 28 33 36 36 47 30 26 25 26 21 21 33 24 17 49 73 62 38 24 3 40 15 30 37 135 60 33 1 8 8 11 15 45 41 30 64 16 11 11 6 11 10 77 64 0 0 0 0 0 0 0 0 0
7 13 17 28 50 39 42 47 37 23 6 4 2 2 22 41 31 29 17 11 23 14 24 35 16 152 38 9 8 4 7 7 6 5 22 54 71 9 17 14 11 13 8 0 0 0 0 0 0 0 3 0 0 0
35 35 42 50 60 68 48 33 24 16 0 0 0 0 1 8 2 0 3 14 20 11 3 18 27 83 85 40 0 0 3 10 1 99 64 52 33 26 32 21 19 12 9 14 1 0 2 1 24 23 3 1 0 0
61 56 48 42 49 46 38 27 12 1 0 0 2 64 56 61 0 6 11 10 6 8 19 19 8 70 40 98 3 0 12 31 53 58 66 26 50 49 47 34 37 7 1 0 6 11 0 6 28 18 6 12 0 0
31 28 25 22 16 10 18 9 0 0 0 13 15 15 42 0 13 30 21 12 19 10 7 3 51 70 49 63 97 22 25 34 30 47 65 10 11 66 33 36 48 53 42 61 72 47 72 49 43 41 18 23 8 0
0 0 2 6 4 3 0 0 0 4 11 10 11 11 9 38 25 7 52 18 51 45 19 79 50 27 37 31 68 87 73 82 41 104 48 22 33 60 94 65 49 79 69 70 58 55 79 52 16 7 3 3 0 0
0 0 0 0 0 0 2 4 2 0 0 16 15 13 39 84 102 75 52 42 57 63 27 97 98 76 87 47 119 117 72 63 181 26 16 51 63 65 58 31 28 24 32 21 41 28 6 5 5 9 11 9 13 11
0 0 0 0 0 0 7 2 0 0 11 8 9 3 10 10 58 85 93 46 61 60 39 46 126 80 70 67 66 74 227 155 54 3 26 61 38 23 34 31 57 42 24 5 1 0 0 1 1 2 30 47 36 24
0 0 0 0 0 2 2 0 0 3 16 7 4 2 9 8 38 95 97 146 94 17 23 28 23 25 96 45 67 156 111 42 30 26 43 31 27 58 87 66 55 52 32 9 6 3 0 0 0 0 1 20 39 43
0 0 0 0 0 0 0 0 0 2 1 45 52 75 102 107 119 99 84 122 68 61 113 125 109 45 119 75 94 64 24 53 53 40 40 68 91 151 174 147 60 53 27 15 17 14 16 19 10 2 1 0 0 3
0 0 0 0 0 0 0 0 0 0 61 59 100 60 74 84 77 49 36 28 25 198 211 142 118 124 111 35 21 15 39 112 194 145 166 247 244 246 199 141 127 106 85 75 50 41 71 44 24 4 7 23 18 16
0 0 0 0 0 0 0 0 0 9 34 35 34 48 46 64 33 34 11 9 0 81 116 93 146 80 36 33 28 26 24 133 167 144 139 234 261 211 133 179 181 197 155 161 146 111 83 81 36 18 9 39 30 24
0 0 0 0 0 0 0 0 0 5 13 10 9 14 7 11 13 9 42 49 11 5 23 32 48 63 81 120 131 176 188 191 202 110 106 173 193 254 275 256 252 236 264 198 150 71 84 99 85 29 21 16 12 23
0 0 0 0 0 0 0 0 0 0 0 0 1 0 3 4 30 29 18 31 21 7 11 31 65 117 148 37 28 163 184 183 167 123 107 186 289 236 249 212 187 149 60 30 8 1 23 29 18 12 7 17 30 35
0 0 0 0 0 0 0 0 2 0 0 0 0 0 10 49 113 64 69 65 30 35 71 98 56 8 5 7 10 95 299 284 254 349 301 344 335 112 16 0 0 0 0 0 0 0 0 0 0 0 0 0 0 3
4 0 0 0 0 0 0 0 0 0 1 0 0 6 26 62 55 0 0 9 11 24 11 19 70 76 188 303 483 366 434 306 323 574 136 100 97 258 48 0 0 0 0 0 0 0 0 0 0 0 0 0 0 0
0 0 0 0 0 0 0 1 3 10 17 20 21 10 11 2 3 2 9 11 29 65 129 118 136 69 1 1 2 22 60 132 218 117 296 213 73 0 0 0 0 0 0 0 0 0 0 0 0 0 0 0 0 0
0 2 0 0 0 0 0 4 3 11 15 17 3 7 11 78 136 160 53 90 334 430 475 154 48 1 1 10 0 0 0 0 0 0 0 0 0 0 0 0 0 0 0 0 0 0 0 0 0 0 0 0 0 0
0 0 0 0 0 0 0 0 0 2 24 25 43 99 146 120 161 46 36 168 387 214 8 0 0 0 0 0 0 0 0 0 0 0 0 0 0 0 0 0 0 0 0 0 0 0 0 0 0 0 0 0 1 3
0 0 0 0 0 0 0 66 22 7 5 33 64 75 100 173 82 95 60 104 47 0 0 0 0 0 0 0 0 0 0 0 0 0 0 0 0 0 0 0 0 0 0 0 0 0 2 6 9 11 8 4 5 5
9 91 0 0 0 0 16 2 3 2 50 113 154 226 146 70 45 9 31 0 0 0 0 0 0 0 0 0 0 0 0 0 0 0 0 0 0 0 0 0 0 0 0 0 3 7 12 20 24 23 28 31 28 35
9 0 134 17 0 0 1 50 38 76 131 89 79 78 10 4 4 6 0 0 1 7 0 0 1 0 0 0 0 0 0 0 0 0 0 0 0 0 0 0 0 0 0 11 8 17 27 30 39 38 34 34 37 27
177 216 6 214 10 8 19 47 47 12 10 121 54 3 0 2 8 5 0 0 1 2 1 0 0 0 0 0 0 0 0 0 0 0 0 0 0 0 1 1 3 6 13 14 0 0 0 0 1 2 13 17 20 23
451 262 406 305 263 89 30 10 0 0 0 0 0 10 22 33 46 18 1 0 0 0 0 0 0 0 0 0 0 0 0 0 0 0 0 0 0 0 1 0 0 0 2 5 4 4 0 0 9 24 20 22 22 15
492 481 354 315 364 116 3 2 3 2 0 2 41 33 24 40 54 3 0 0 0 1 0 0 0 0 0 0 0 0 0 0 0 0 0 0 0 0 0 0 0 0 0 2 4 6 11 11 12 15 16 16 15 21
447 432 478 192 388 56 5 19 37 0 1 12 18 12 21 82 34 137 51 0 0 0 0 0 0 0 0 0 0 0 0 2 1 0 0 0 0 0 0 0 0 1 2 2 4 8 13 16 17 18 23 24 34 40
354 68 44 100 218 222 325 190 92 2 1 18 65 63 58 63 63 98 7 0 0 0 0 0 0 0 0 0 0 0 0 2 0 0 0 0 0 0 0 0 0 2 2 6 7 12 15 12 14 24 25 19 26 30

GFSWCAN_con_sbcape_030.txt.gz
CAPE
27 36 37 48 59 73 84 87 58 66 70 64 71 77 82 76 141 233 295 438 250 13 1 11 25 47 43 36 20 45 3 78 56 63 63 34 42 4 13 13 67 83 109 60 147 164 73 199 380 226 1233 1299 1226 1131
21 35 55 69 87 84 94 108 91 46 49 50 45 38 21 23 34 100 315 567 241 29 8 2 25 30 58 11 13 22 23 12 61 94 112 87 31 79 186 37 12 68 29 100 147 200 1034 387 1343 1033 793 834 1125 1050
24 47 48 59 64 80 80 59 22 21 32 36 34 25 31 29 29 39 280 236 149 46 13 20 41 80 54 37 0 28 0 3 1 48 38 78 90 116 218 227 309 226 144 234 208 190 811 547 503 617 746 998 1086 1142
17 2 16 28 42 64 55 37 38 41 40 29 18 11 5 7 4 12 237 320 45 56 47 1 41 17 37 24 31 0 0 16 97 12 14 78 71 83 89 50 40 61 6 111 276 1474 745 513 503 510 751 1087 1248 1658
17 9 6 29 50 66 56 42 32 25 12 4 0 0 4 18 17 7 37 83 166 31 54 3 0 0 7 168 27 10 0 0 157 28 19 88 101 61 83 89 104 22 18 22 675 59 78 653 317 613 644 750 918 1107
25 21 29 42 49 51 51 49 27 20 13 9 0 0 1 19 41 37 31 88 95 60 28 38 1 0 83 31 31 0 1 2 12 17 31 37 94 32 112 95 4 0 2 39 9 2 0 16 15 4 4 14 192 187
4 9 19 18 19 27 26 28 17 14 21 11 9 8 2 13 8 70 54 5 0 39 32 17 9 1 34 309 12 24 11 5 11 37 47 39 126 63 150 27 3 2 23 44 4 2 14 0 0 0 0 0 0 0
0 0 0 0 2 4 5 0 2 3 1 0 0 0 0 0 0 0 1 0 7 26 13 20 10 3 151 261 62 45 45 22 23 20 69 48 65 101 9 0 16 18 2 31 38 8 0 0 0 0 0 0 0 0
0 0 0 0 0 0 3 5 13 10 2 1 1 0 1 11 12 54 1 3 31 23 16 9 11 4 10 128 164 64 231 97 90 68 57 43 28 27 20 33 3 4 4 7 0 2 4 1 0 0 0 0 0 0
0 0 0 0 0 0 0 0 10 6 0 0 0 12 59 128 6 19 42 19 14 17 13 2 8 7 9 74 77 26 65 83 19 33 35 12 17 4 50 14 1 0 0 0 4 5 7 0 0 0 0 0 0 0
0 0 0 0 0 0 0 0 5 1 0 16 16 19 10 4 37 30 32 8 11 4 9 5 6 58 40 62 38 58 65 51 11 21 7 8 2 4 36 43 19 0 0 0 0 0 0 0 7 2 7 2 2 0
0 0 0 0 0 0 0 0 1 0 10 1 0 2 3 40 33 18 9 16 17 26 54 53 57 80 19 30 28 43 27 24 11 59 8 9 1 26 52 66 28 3 5 13 2 0 2 6 11 52 57 55 21 56
0 0 0 0 0 0 0 0 0 0 0 2 13 22 10 28 124 6 7 8 19 19 13 50 69 38 34 64 48 55 15 51 57 9 9 11 16 13 23 50 60 50 73 102 81 28 44 92 104 124 139 135 82 79
0 0 0 0 0 0 0 0 0 0 1 12 13 20 115 75 20 10 2 5 66 33 52 68 149 20 39 46 52 44 69 44 10 11 3 1 2 2 46 175 144 133 123 68 64 44 74 54 93 70 124 152 128 106
0 0 0 0 0 0 0 0 0 0 13 34 65 93 48 211 189 175 44 24 201 113 14 248 76 67 61 95 280 111 27 10 11 4 5 6 4 5 125 238 147 82 103 76 48 56 64 56 33 49 73 50 58 56
0 0 0 0 0 0 0 0 16 271 290 128 50 101 105 121 108 137 305 75 162 74 73 11 13 44 72 59 21 21 14 17 24 40 32 27 76 161 223 289 222 274 135 131 95 173 90 83 99 93 89 61 67 64
0 0 0 0 0 0 0 3 50 26 34 33 63 106 95 104 192 102 71 90 158 370 68 14 44 56 73 10 14 29 16 29 20 39 50 46 52 99 113 468 279 222 212 62 66 106 107 0 106 197 178 58 77 39
0 0 0 0 0 0 31 1 69 26 18 50 69 148 206 290 156 320 262 336 231 299 176 27 51 23 27 18 32 56 64 85 153 165 337 568 337 544 367 469 429 307 322 280 44 305 46 18 197 69 136 114 159 94
0 0 0 0 0 0 9 0 20 25 31 53 128 166 197 297 156 198 389 342 175 9 23 2 34 62 99 175 283 317 331 239 47 395 571 568 600 506 476 437 515 315 245 224 112 73 36 166 45 6 22 44 14 5
0 0 0 0 0 7 3 3 16 12 24 73 131 231 129 190 182 121 115 144 81 45 47 79 162 346 447 539 690 702 540 557 393 421 376 79 120 260 320 225 86 538 197 188 56 2 36 15 0 0 0 0 0 0
0 0 0 0 3 2 2 6 14 0 31 117 118 212 304 350 133 33 4 9 12 30 129 242 241 302 401 302 237 414 474 177 464 118 160 356 57 53 59 42 83 35 27 7 3 9 1 0 0 0 0 0 0 0
0 0 0 0 5 4 26 20 25 28 108 161 133 176 288 132 55 26 34 48 126 274 532 132 94 74 150 190 89 79 113 371 379 118 12 69 30 15 22 12 3 6 15 4 1 2 2 0 0 0 0 0 0 0
0 0 10 11 0 0 15 25 10 15 70 91 189 132 119 152 148 90 117 268 285 581 592 220 385 584 305 310 54 4 14 47 36 3 9 0 39 26 25 24 9 8 2 1 0 0 1 0 0 0 6 1 3 1
0 0 4 95 132 17 85 80 87 32 65 130 225 148 128 102 52 73 19 79 101 91 87 159 72 72 53 89 7 0 0 0 0 0 0 0 0 0 0 0 1 1 1 4 4 1 0 1 0 6 11 9 9 8
0 0 112 17 393 288 157 132 161 181 145 202 177 287 236 298 57 38 33 6 14 21 9 6 11 9 11 8 4 0 3 0 0 0 0 1 5 2 0 0 0 0 0 0 0 0 7 6 5 13 12 2 0 0
24 285 51 227 266 214 229 207 245 207 268 104 9 72 399 70 19 12 14 7 11 5 4 14 23 22 18 11 2 0 0 0 0 0 0 0 0 0 0 0 0 0 0 1 6 4 11 14 7 2 0 0 0 2
167 345 520 415 424 404 385 329 356 337 221 208 316 230 131 15 10 3 0 1 2 8 22 15 4 3 1 0 0 0 0 0 0 0 0 1 0 0 0 0 0 0 0 1 0 0 3 3 0 0 0 2 6 8
356 521 451 389 485 397 321 151 36 36 60 198 246 5 1 3 4 5 7 17 3 1 0 3 9 0 0 0 0 0 0 0 0 0 0 0 0 0 0 0 0 0 0 0 0 1 3 1 0 0 0 1 9 5
380 449 165 298 234 75 148 102 19 26 43 123 46 15 6 4 10 15 7 11 22 33 14 17 6 0 0 0 0 0 0 0 0 0 0 0 0 0 0 0 0 0 0 0 0 0 0 0 3 6 7 9 7 3
301 105 399 119 55 18 12 25 9 4 0 0 0 5 12 16 16 23 30 18 13 17 8 7 3 0 0 0 0 0 0 0 0 0 0 0 0 0 0 0 0 0 0 1 1 2 0 1 2 5 7 8 13 9
95 101 167 62 77 25 60 34 12 1 7 7 13 12 17 25 68 29 9 7 15 13 3 3 2 0 0 0 0 0 0 2 0 0 0 0 0 0 0 1 2 4 4 5 7 6 10 10 11 14 13 18 24 22
143 61 159 227 221 192 142 238 237 65 11 21 24 15 38 45 58 62 16 19 10 9 0 5 5 4 0 0 2 0 0 1 0 0 0 0 0 0 0 3 3 5 5 5 5 7 10 11 10 13 15 12 11 10
98 80 65 74 217 323 571 531 442 192 58 91 42 36 22 21 3 8 14 21 7 3 1 0 8 6 2 0 0 0 0 0 0 0 0 0 0 0 0 4 3 6 4 5 6 6 7 8 12 16 15 18 14 16

GFSWCAN_con_sbcape_033.txt.gz
CAPE
8 21 22 22 39 40 62 89 96 84 63 67 57 68 74 58 50 182 135 262 107 4 0 0 0 2 2 2 1 29 0 18 0 149 6 35 2 0 0 0 0 49 5 3 1 33 5 359 58 820 1309 908 957 749
3 2 1 12 16 28 59 80 78 76 72 50 54 55 47 57 58 64 159 321 187 37 14 1 0 0 0 5 7 2 39 6 24 90 29 13 33 31 19 52 23 44 56 56 99 85 556 518 721 637 761 976 804 930
0 0 0 0 20 44 67 75 64 62 58 32 41 50 39 44 67 58 57 171 182 47 3 2 0 0 0 0 0 0 0 3 60 1 34 11 19 82 52 132 43 42 1 83 149 56 50 126 109 69 591 795 1546 1837
0 0 9 17 26 32 39 47 56 60 66 40 32 20 14 24 75 32 26 82 70 32 18 0 0 0 0 0 1 0 0 1 68 66 23 68 35 59 27 52 12 21 12 0 48 19 100 227 0 81 640 1613 1459 1573
0 0 0 0 0 1 11 14 19 23 27 28 22 29 17 6 65 27 0 10 36 7 25 2 0 0 17 27 0 46 1 0 75 0 50 11 44 55 65 80 3 37 29 16 9 8 7 0 0 14 810 770 677 1013
0 0 0 0 0 0 3 8 9 11 16 24 24 23 40 47 28 0 24 0 93 46 13 10 0 0 50 6 2 6 0 0 0 24 29 2 24 59 57 28 28 3 2 15 22 8 0 0 0 0 0 90 196 342
0 0 0 0 0 0 0 0 1 7 16 17 17 16 13 22 12 11 17 3 0 0 16 12 2 0 0 168 124 43 0 0 0 98 19 13 38 57 38 54 11 72 17 12 26 7 0 3 2 0 0 0 0 0
0 0 0 0 0 0 0 0 0 0 3 5 9 9 7 11 19 10 1 0 0 20 9 15 2 1 95 102 55 50 20 28 52 68 54 51 23 40 43 13 30 0 0 16 0 0 2 0 0 0 0 0 0 0
0 0 0 0 0 0 0 0 0 0 1 2 3 3 4 9 15 7 2 6 3 10 9 11 4 7 1 70 73 69 79 50 57 35 62 31 27 21 3 10 1 3 5 6 0 0 0 0 1 0 2 0 0 0
0 0 0 0 0 0 1 0 0 0 0 0 0 0 27 2 2 8 6 10 10 7 3 6 8 5 5 23 16 45 50 51 33 27 26 12 12 7 17 12 4 1 1 0 1 2 3 0 1 0 0 0 0 0
0 0 0 0 0 0 0 0 0 0 0 7 12 14 0 1 6 21 15 4 6 4 5 2 4 2 44 28 42 31 42 8 3 17 13 8 4 11 29 13 8 1 0 0 0 0 5 11 25 11 0 0 0 0
0 0 0 0 0 0 0 0 0 0 0 0 0 0 0 19 11 11 8 5 10 8 10 19 20 12 8 36 23 45 18 25 15 50 9 3 0 5 2 70 30 8 0 1 7 27 46 66 30 37 19 11 0 0
0 0 0 0 0 0 0 0 0 0 0 0 0 1 0 1 0 2 3 8 12 44 38 44 27 23 52 32 27 22 13 50 44 5 3 2 2 1 0 6 54 35 28 46 68 39 54 66 67 53 23 17 15 36
0 0 0 0 0 0 0 0 0 0 0 9 21 7 30 32 1 0 0 13 0 5 12 7 29 11 20 29 39 27 46 17 9 4 0 2 0 0 2 4 10 71 68 65 92 58 84 56 43 51 99 44 7 1
0 0 0 0 0 0 0 0 0 0 0 107 30 38 75 87 84 47 16 0 5 75 25 73 49 48 65 76 55 34 6 6 8 2 0 8 14 23 45 105 70 93 88 99 60 67 86 90 77 43 3 0 11 8
0 0 0 0 0 0 0 0 64 68 563 95 71 83 67 44 72 40 73 4 37 22 176 32 40 31 17 23 10 15 6 9 19 18 25 9 16 36 89 163 165 119 57 53 46 12 4 53 146 109 70 23 12 2
0 0 0 0 0 0 0 0 535 182 68 71 93 137 82 81 68 51 59 31 57 1 0 0 15 16 5 2 8 14 2 8 22 42 40 23 44 59 144 215 139 7 0 9 108 21 8 32 189 120 13 20 11 18
0 0 0 0 0 0 60 67 96 66 66 121 128 152 155 92 90 78 24 10 0 0 0 15 22 16 27 22 41 38 26 21 31 32 31 45 101 227 251 193 287 219 72 104 75 2 0 0 9 7 13 48 7 6
0 0 0 0 0 1 17 6 74 56 70 93 173 175 117 104 104 29 15 0 0 0 7 22 31 28 30 52 36 33 37 7 0 4 31 125 111 178 251 214 254 246 178 37 21 49 0 0 0 0 0 0 11 0
0 0 0 0 0 0 5 46 284 36 35 148 175 156 79 38 50 90 18 4 1 0 1 31 59 76 56 36 46 37 81 123 52 60 96 26 39 75 171 81 108 49 2 3 0 0 0 0 0 0 0 0 0 0
0 0 0 0 0 0 3 13 44 52 35 158 193 147 341 78 60 0 7 9 0 16 54 104 51 22 10 0 0 0 0 129 140 0 71 161 323 244 115 38 7 0 0 0 0 0 0 0 0 0 0 0 0 0
0 0 0 57 0 0 77 275 24 64 203 271 204 112 114 47 33 36 1 12 28 89 108 39 91 24 0 0 0 0 0 0 0 0 0 0 0 0 2 6 3 0 0 0 0 0 0 0 0 0 0 0 0 0
0 0 68 170 17 0 110 488 46 85 165 268 389 133 150 193 232 22 67 72 118 60 21 27 88 125 34 37 0 0 0 0 0 0 0 0 0 0 0 0 0 0 0 0 0 0 0 0 0 0 0 0 0 0
0 0 63 207 270 81 562 394 401 441 285 239 263 103 171 257 58 27 25 24 7 4 0 19 4 0 0 6 0 0 0 0 0 0 0 0 0 0 0 0 0 0 0 0 0 0 0 0 0 0 0 0 0 0
0 0 92 166 673 473 318 390 365 390 177 173 196 6 32 62 29 27 29 2 9 0 1 11 5 19 13 0 0 0 0 0 0 0 0 0 0 0 0 0 0 0 0 0 0 0 0 0 0 0 0 0 0 0
26 445 123 181 469 460 262 213 243 299 255 233 224 298 239 26 6 3 4 3 14 24 36 35 18 15 0 1 0 0 0 0 0 0 0 0 0 0 0 0 0 0 0 0 0 0 0 0 0 0 0 0 0 0
87 114 635 943 193 254 412 193 139 50 55 176 314 238 182 3 5 6 4 41 45 46 95 56 34 0 0 0 0 0 0 0 0 0 0 0 0 0 0 0 0 0 0 0 0 0 0 0 0 0 0 1 0 0
0 1 223 294 345 306 176 21 10 17 15 210 57 2 6 6 5 7 11 55 43 70 103 81 0 0 0 0 0 0 0 0 0 0 0 0 0 0 0 0 0 0 0 0 0 0 0 0 0 0 0 0 0 0
81 3 11 121 14 8 1 0 6 0 0 5 0 0 4 5 4 19 34 47 83 68 7 0 0 0 0 0 0 0 0 0 0 0 0 0 0 0 0 0 0 0 0 0 0 0 0 0 0 0 1 0 0 0
192 73 539 36 1 0 0 0 0 0 0 0 0 0 3 10 4 24 10 18 27 9 0 0 0 0 0 0 0 0 0 0 0 0 0 0 0 0 0 0 0 0 0 0 0 0 0 0 0 0 0 0 1 0
393 318 191 73 34 48 24 0 0 0 1 3 0 0 0 16 36 23 49 6 4 0 0 0 0 0 0 0 0 0 0 0 0 0 0 0 0 0 0 0 0 0 0 1 2 0 0 1 2 3 4 4 5 4
349 48 127 234 212 171 145 216 175 58 3 29 15 1 5 3 52 13 2 0 0 0 0 0 0 0 0 0 0 0 0 0 0 0 0 0 0 0 0 0 0 0 0 2 2 2 3 5 4 5 7 10 8 8
27 68 79 230 376 399 536 572 396 220 47 190 71 38 11 2 0 0 0 0 0 0 0 0 0 0 0 0 0 0 0 0 0 0 0 0 0 0 0 0 0 0 0 1 1 5 6 9 9 12 11 16 15 10

GFSWCAN_con_sbcape_036.txt.gz
CAPE
4 2 0 0 0 0 0 11 35 30 28 28 26 33 50 56 69 5 0 0 27 35 4 2 0 0 1 3 10 0 1 11 1 147 124 22 0 0 0 0 71 79 90 52 0 0 0 0 2 0 13 503 140 44
0 0 0 0 1 1 0 19 37 44 38 27 40 39 30 32 24 29 0 0 4 39 3 0 0 0 0 0 0 0 4 7 24 2 33 5 6 67 17 98 91 68 118 16 3 50 0 0 0 0 102 333 378 155
0 0 0 0 0 0 0 0 11 19 12 0 8 22 28 20 23 35 0 0 3 4 1 0 0 0 0 0 0 0 0 0 6 33 22 29 4 4 14 25 51 126 61 92 0 17 0 0 0 0 0 1301 1227 1195
0 0 0 0 0 0 0 0 2 7 12 12 16 24 21 49 41 23 1 0 31 29 8 0 0 0 0 0 0 0 0 0 7 7 0 18 16 10 27 14 7 86 97 0 0 0 0 0 0 0 445 1159 1275 1217
0 0 0 0 0 0 0 0 0 0 0 15 19 18 30 41 40 5 0 0 1 8 6 0 0 0 0 0 0 0 0 0 0 0 0 15 38 33 50 44 15 36 4 2 0 0 23 10 6 0 0 0 45 657
0 0 0 0 0 0 0 0 0 0 0 0 17 19 17 29 46 0 0 0 1 4 11 10 0 0 0 0 1 0 1 0 0 0 15 67 33 24 25 21 18 2 0 0 11 10 0 0 0 0 0 0 0 0
0 0 0 0 0 0 0 0 0 0 0 2 10 16 20 16 14 0 0 0 0 0 8 9 0 0 0 0 0 3 0 0 0 7 43 50 44 46 29 40 28 57 13 0 10 8 0 0 1 0 0 0 0 0
0 0 0 0 0 0 0 0 1 1 1 5 6 8 9 7 16 5 0 0 0 0 11 12 1 0 0 3 7 1 0 0 10 28 33 46 12 18 22 1 7 4 0 2 0 0 0 0 0 0 0 0 0 0
0 0 0 0 0 0 0 1 1 0 0 0 1 1 1 4 2 1 7 5 0 0 9 5 4 0 0 26 37 9 20 28 41 23 41 28 19 20 4 18 2 6 1 2 0 0 0 0 0 0 0 0 0 0
0 0 0 0 0 0 0 1 1 0 0 0 0 0 0 0 7 1 4 4 6 6 2 2 5 3 0 25 17 4 19 24 22 20 1 7 6 5 18 8 2 2 2 1 2 2 0 0 0 0 0 0 0 0
0 0 0 0 0 0 0 0 0 0 0 0 0 0 0 7 10 15 17 3 3 2 2 2 5 2 0 16 21 23 20 8 5 14 6 5 0 4 2 8 4 2 1 2 0 0 0 0 12 2 0 0 0 0
0 0 0 0 0 0 0 0 0 0 0 0 0 0 0 3 0 12 9 15 7 4 2 3 2 2 0 24 15 22 10 13 8 23 2 1 0 0 1 29 6 4 10 4 3 9 0 8 22 23 32 42 29 24
0 0 0 0 0 0 0 0 0 0 0 0 0 0 0 0 13 0 0 0 2 8 1 5 8 15 35 10 12 10 17 12 28 2 1 1 0 0 0 6 33 9 17 4 24 32 20 33 58 43 22 45 41 24
0 0 0 0 0 0 0 0 0 0 0 0 0 0 2 1 1 0 0 0 0 0 0 1 9 19 1 4 33 12 18 4 5 0 3 2 18 10 19 34 22 46 46 64 79 61 22 38 45 37 13 10 5 23
0 0 0 0 0 0 0 0 0 0 0 1 0 12 12 1 5 2 1 0 0 0 1 2 7 6 5 12 31 15 4 3 5 3 10 8 3 24 22 39 32 27 11 0 1 5 38 28 6 1 0 1 0 0
0 0 0 0 0 0 0 0 0 0 11 3 14 11 0 0 1 0 0 0 0 0 0 0 0 0 8 11 6 8 5 5 15 14 5 6 14 28 5 1 0 9 2 0 0 1 4 6 7 0 0 0 0 0
0 0 0 0 0 0 0 0 0 0 9 24 26 7 3 0 10 0 0 0 0 0 0 0 23 18 2 9 15 36 11 38 34 19 12 8 11 16 32 44 31 23 1 0 0 0 0 0 0 0 0 0 0 0
0 0 0 0 0 0 0 0 0 1 14 28 22 9 0 0 0 0 0 0 0 0 0 18 21 9 19 17 11 7 2 2 3 1 11 29 31 62 33 18 0 0 0 0 0 0 0 0 0 0 0 0 0 0
0 0 0 0 0 0 0 0 0 11 37 14 4 0 0 0 0 0 0 0 0 0 0 4 1 11 5 9 0 5 9 0 0 0 13 35 7 14 0 0 0 0 0 0 0 0 0 0 0 0 0 0 0 0
0 0 0 0 0 0 0 0 0 1 5 24 0 2 0 0 0 0 0 0 0 0 0 0 0 8 0 0 0 0 0 11 0 0 0 0 0 1 0 0 0 0 0 0 0 0 0 0 0 0 0 0 0 0
0 0 0 0 0 0 0 0 0 0 0 0 1 2 0 0 0 0 0 0 0 1 11 2 0 0 0 0 0 0 0 0 0 0 0 0 0 0 0 0 0 0 0 0 0 0 0 0 0 0 0 0 0 0
0 0 0 0 0 0 0 0 0 0 0 2 3 0 0 0 0 0 0 0 0 2 0 0 0 0 0 0 0 0 0 0 0 0 0 0 0 0 0 0 0 0 0 0 0 0 0 0 0 0 0 0 0 0
0 0 0 0 2 0 0 0 1 0 5 0 1 25 10 0 0 0 0 0 1 0 0 0 0 0 0 0 0 0 0 0 0 0 0 0 0 0 0 0 0 0 0 0 0 0 0 0 0 0 0 0 0 0
0 0 0 12 30 88 15 15 49 26 0 0 0 1 0 5 6 0 0 0 0 0 0 0 0 0 0 0 0 0 0 0 0 0 0 0 0 0 0 0 0 0 0 0 0 0 0 0 0 0 0 0 0 0
0 0 10 85 12 232 95 59 30 15 12 31 1 0 0 15 11 0 2 0 0 0 0 0 0 0 0 0 0 0 0 0 0 0 0 0 0 0 0 0 0 0 0 0 0 0 0 0 0 0 0 0 0 0
14 84 122 182 75 138 140 10 2 1 58 66 35 14 28 24 2 0 0 0 0 6 5 0 0 0 0 0 0 0 0 0 0 0 0 0 0 0 0 0 0 0 0 0 0 0 0 0 0 0 0 0 0 0
0 0 0 5 39 145 83 0 0 0 24 81 61 63 25 5 5 0 0 0 7 11 17 0 0 0 0 0 0 0 0 0 0 0 0 0 0 0 0 0 0 0 0 0 0 0 0 0 0 0 0 0 0 0
0 0 0 97 105 154 0 0 0 0 0 0 0 0 0 0 0 0 0 14 36 0 0 0 0 0 0 0 0 0 0 0 0 0 0 0 0 0 0 0 0 0 0 0 0 0 0 0 0 0 0 0 0 0
1 1 6 108 0 0 0 0 0 0 0 0 0 0 0 0 0 0 0 19 0 0 0 0 0 0 0 0 0 0 0 0 0 0 0 0 0 0 0 0 0 0 0 0 0 0 0 0 0 0 0 0 0 0
76 0 87 320 2 0 0 0 0 0 0 0 0 0 0 0 0 0 1 0 0 0 0 0 0 0 0 0 0 0 0 0 0 0 0 0 0 0 0 0 0 0 0 0 0 0 0 0 0 0 0 0 0 0
184 65 275 16 0 0 0 0 0 0 0 0 0 0 0 0 1 0 1 0 0 0 0 0 0 0 0 0 0 0 0 0 0 0 0 0 0 0 0 0 0 0 0 0 0 0 0 0 0 0 0 0 0 0
150 140 78 127 37 1 0 0 0 0 0 0 0 0 0 0 7 0 0 0 0 0 0 0 0 0 0 0 0 0 0 0 0 0 0 0 0 0 0 0 0 0 0 0 0 0 0 0 0 0 0 0 0 0
71 59 96 201 178 169 193 178 166 45 0 7 0 0 13 0 0 0 0 0 0 0 0 0 0 0 0 0 0 0 0 0 0 0 0 0 0 0 0 0 0 0 0 0 0 0 0 0 0 0 0 0 0 0